KE4KEW-3 Weather Reports


time (UTC)temp
C
wind
direction
speed
KPH
gust
KPH
rain 1hr
cm
rain 24hr
cm
rain mn
cm
humidity
%
barometer
mb
20260508001506 12 227 0.0 3.2 0.00 0.15 0.03 80 1011.4
20260508000007 13 47 1.6 1.6 0.00 0.15 0.03 78 1011.1
20260507234508 14 225 0.0 3.2 0.00 0.15 0.03 75 1010.7
20260507233009 15 203 0.0 0.0 0.00 0.15 0.03 75 1010.6
20260507231507 15 171 0.0 1.6 0.00 0.15 0.03 74 1010.3
20260507230008 15 201 0.0 3.2 0.00 0.15 0.03 73 1010.1
20260507224509 16 214 0.0 3.2 0.00 0.15 0.03 71 1010.0
20260507223011 16 168 1.6 4.8 0.00 0.15 0.03 69 1010.0
20260507221508 17 229 3.2 8.0 0.00 0.15 0.03 68 1009.7
20260507220015 16 169 0.0 3.2 0.00 0.15 0.03 71 1009.6
20260507214512 17 132 1.6 6.4 0.00 0.15 0.03 67 1009.4
20260507213017 17 182 3.2 11.3 0.00 0.15 0.03 69 1009.4
20260507211513 17 172 1.6 17.7 0.00 0.15 0.03 68 1009.3
20260507210024 17 195 4.8 9.7 0.00 0.15 0.03 68 1009.2
20260507204514 17 169 1.6 8.0 0.00 0.15 0.03 70 1009.5
20260507203019 17 173 1.6 6.4 0.00 0.15 0.03 69 1009.5
20260507201515 16 140 1.6 8.0 0.00 0.15 0.03 74 1009.7
20260507200021 15 233 1.6 8.0 0.00 0.15 0.03 70 1010.0
20260507194508 15 119 0.0 9.7 0.00 0.15 0.03 74 1010.1
20260507193010 16 162 3.2 9.7 0.00 0.15 0.03 70 1010.4
20260507191518 16 216 1.6 9.7 0.00 0.15 0.03 73 1010.5
20260507190005 15 206 4.8 12.9 0.00 0.15 0.03 72 1010.7
20260507184503 15 213 3.2 11.3 0.00 0.15 0.03 74 1010.8
20260507183030 16 159 3.2 6.4 0.00 0.15 0.03 72 1011.0
20260507181514 15 146 1.6 4.8 0.00 0.15 0.03 78 1011.2
20260507180011 13 67 0.0 9.7 0.00 0.15 0.03 78 1011.2
20260507174509 13 201 1.6 6.4 0.03 0.15 0.03 83 1011.4
20260507173014 12 84 1.6 3.2 0.03 0.15 0.03 80 1011.6
20260507171503 12 154 0.0 4.8 0.03 0.15 0.03 82 1011.7
20260507170019 12 184 1.6 6.4 0.03 0.15 0.03 82 1012.1
20260507164518 12 109 1.6 4.8 0.00 0.13 0.00 80 1012.2
20260507163015 12 111 0.0 3.2 0.00 0.13 0.00 82 1012.5
20260507161517 12 123 1.6 6.4 0.00 0.13 0.00 81 1012.6
20260507160012 12 122 1.6 6.4 0.00 0.13 0.00 81 1012.9
20260507154505 11 63 0.0 3.2 0.00 0.13 0.00 83 1013.1
20260507153014 11 36 0.0 3.2 0.00 0.13 0.00 81 1013.3
20260507151518 11 47 1.6 3.2 0.00 0.13 0.00 81 1013.0
20260507150017 11 113 1.6 4.8 0.00 0.13 0.00 80 1013.1
20260507144525 11 59 0.0 4.8 0.00 0.13 0.00 81 1013.0
20260507143011 11 57 1.6 4.8 0.00 0.13 0.00 78 1013.1
20260507141508 11 75 1.6 4.8 0.00 0.13 0.00 78 1013.4
20260507140008 11 77 3.2 6.4 0.00 0.13 0.00 78 1013.5
20260507134524 11 47 1.6 4.8 0.00 0.13 0.00 79 1013.6
20260507133020 11 89 0.0 4.8 0.00 0.13 0.00 81 1013.7
20260507131522 11 29 1.6 4.8 0.00 0.13 0.00 80 1013.6
20260507130027 11 30 0.0 0.0 0.00 0.13 0.00 81 1013.7
20260507124515 11 35 1.6 4.8 0.00 0.13 0.00 81 1013.7
20260507123010 11 36 1.6 4.8 0.00 0.13 0.00 81 1013.7
20260507121524 11 58 0.0 0.0 0.00 0.15 0.00 82 1013.6
20260507120023 11 58 0.0 3.2 0.00 0.15 0.00 81 1013.3
20260507114521 11 44 0.0 3.2 0.00 0.15 0.00 81 1013.4
20260507113026 11 23 0.0 3.2 0.00 0.15 0.00 83 1013.3
20260507111516 11 12 1.6 4.8 0.00 0.15 0.00 84 1013.1
20260507110012 11 41 1.6 4.8 0.00 0.15 0.00 86 1012.8
20260507104508 11 43 1.6 3.2 0.00 0.15 0.00 86 1012.7
20260507103007 11 44 1.6 4.8 0.00 0.15 0.00 86 1012.7
20260507101508 11 34 1.6 3.2 0.00 0.15 0.00 87 1012.5
20260507100023 11 53 0.0 6.4 0.00 0.15 0.00 87 1012.6
20260507094524 11 40 1.6 8.0 0.00 0.15 0.00 86 1012.5
20260507093016 11 28 3.2 6.4 0.00 0.15 0.00 86 1012.6
20260507091512 11 52 1.6 9.7 0.00 0.15 0.00 86 1012.3
20260507090011 11 57 0.0 4.8 0.00 0.15 0.00 87 1012.3
20260507084512 11 25 1.6 6.4 0.00 0.15 0.00 86 1012.4
20260507083027 12 104 1.6 11.3 0.00 0.15 0.00 87 1012.0
20260507081530 12 136 3.2 8.0 0.00 0.15 0.00 87 1012.0
20260507080023 12 37 1.6 6.4 0.00 0.15 0.00 87 1012.0
20260507074516 12 119 1.6 6.4 0.00 0.15 0.00 88 1012.0
20260507073014 13 44 1.6 6.4 0.00 0.15 0.00 88 1012.0
20260507071510 13 49 1.6 9.7 0.00 0.15 0.00 88 1011.9
20260507070011 13 36 3.2 8.0 0.00 0.15 0.00 87 1011.6
20260507064524 14 35 4.8 8.0 0.00 0.15 0.00 90 1011.5
20260507063024 15 59 1.6 4.8 0.00 0.15 0.00 90 1011.4
20260507061520 15 53 1.6 4.8 0.00 0.15 0.00 92 1011.6
20260507060018 15 68 0.0 0.0 0.00 0.15 0.00 92 1011.5
20260507054514 15 121 0.0 0.0 0.00 0.15 0.00 91 1011.7
20260507053010 15 63 0.0 1.6 0.00 0.15 0.00 92 1011.7
20260507051528 15 10 1.6 3.2 0.00 0.15 0.00 92 1011.4
20260507050029 15 329 0.0 0.0 0.00 0.15 0.00 91 1011.2
20260507044524 16 9 0.0 3.2 0.03 0.15 0.00 90 1010.6
20260507043020 16 152 1.6 3.2 0.03 0.15 0.00 89 1010.0
20260507041536 16 223 0.0 3.2 0.03 0.15 0.00 88 1011.2
20260507040016 16 352 0.0 4.8 0.03 0.15 0.00 88 1011.6
20260507034528 17 252 1.6 6.4 0.00 0.13 0.13 86 1011.6
20260507033032 16 226 1.6 4.8 0.00 0.13 0.13 88 1011.5
20260507031523 17 180 0.0 4.8 0.05 0.13 0.13 88 1011.4
20260507030024 17 300 0.0 0.0 0.10 0.13 0.13 88 1011.4
20260507024521 17 14 0.0 0.0 0.10 0.13 0.13 86 1011.1
20260507023021 18 315 0.0 3.2 0.10 0.13 0.13 85 1011.1
20260507021516 19 290 1.6 6.4 0.05 0.08 0.08 80 1010.9
20260507020028 18 291 0.0 1.6 0.00 0.03 0.03 79 1010.9
20260507014516 19 217 0.0 0.0 0.00 0.03 0.03 77 1010.4
20260507013017 19 217 1.6 4.8 0.00 0.03 0.03 75 1010.2
20260507011506 20 213 0.0 3.2 0.00 0.03 0.03 73 1010.3
20260507010003 20 213 0.0 4.8 0.00 0.03 0.03 72 1010.6
20260507004521 20 247 3.2 6.4 0.00 0.03 0.03 72 1010.8
20260507003018 20 249 4.8 8.0 0.00 0.03 0.03 71 1010.7